| time (UTC) | temp F | wind direction | speed MPH | gust MPH | rain 1hr in | rain 24hr in | rain mn in | humidity % | barometer mb |
| 20260510054037 | 52 | 288 | 3.0 | 8.0 | 0.00 | 0.00 | 0.00 | 93 | 1014.1 |
| 20260510053537 | 52 | 286 | 3.0 | 8.0 | 0.00 | 0.00 | 0.00 | 93 | 1014.1 |
| 20260510053055 | 53 | 301 | 4.0 | 8.0 | 0.00 | 0.00 | 0.00 | 93 | 1014.1 |
| 20260510052537 | 53 | 253 | 2.0 | 8.0 | 0.00 | 0.00 | 0.00 | 93 | 1014.1 |
| 20260510052037 | 53 | 263 | 2.0 | 8.0 | 0.00 | 0.00 | 0.00 | 93 | 1014.2 |
| 20260510051545 | 53 | 313 | 3.0 | 8.0 | 0.00 | 0.00 | 0.00 | 93 | 1014.2 |
| 20260510051037 | 53 | 277 | 2.0 | 7.0 | 0.00 | 0.00 | 0.00 | 93 | 1014.3 |
| 20260510050539 | 53 | 266 | 2.0 | 9.0 | 0.00 | 0.00 | 0.00 | 93 | 1014.2 |
| 20260510050044 | 53 | 246 | 4.0 | 10.0 | 0.00 | 0.00 | 0.00 | 92 | 1014.2 |
| 20260510045537 | 53 | 250 | 3.0 | 10.0 | 0.00 | 0.00 | 0.00 | 93 | 1014.2 |
| 20260510045037 | 53 | 271 | 3.0 | 10.0 | 0.00 | 0.00 | 0.00 | 93 | 1014.2 |
| 20260510044548 | 53 | 273 | 4.0 | 10.0 | 0.00 | 0.00 | 0.00 | 93 | 1014.2 |
| 20260510044037 | 53 | 265 | 3.0 | 8.0 | 0.00 | 0.00 | 0.00 | 93 | 1014.2 |
| 20260510043536 | 53 | 321 | 3.0 | 9.0 | 0.00 | 0.00 | 0.00 | 93 | 1014.1 |
| 20260510043044 | 53 | 259 | 3.0 | 9.0 | 0.00 | 0.00 | 0.00 | 93 | 1014.1 |
| 20260510042538 | 53 | 266 | 3.0 | 9.0 | 0.00 | 0.00 | 0.00 | 92 | 1014.0 |
| 20260510042040 | 53 | 248 | 2.0 | 9.0 | 0.00 | 0.00 | 0.00 | 92 | 1014.0 |
| 20260510041541 | 53 | 254 | 3.0 | 7.0 | 0.00 | 0.00 | 0.00 | 92 | 1014.0 |
| 20260510041037 | 53 | 281 | 3.0 | 9.0 | 0.00 | 0.00 | 0.00 | 92 | 1014.0 |
| 20260510040539 | 53 | 227 | 3.0 | 9.0 | 0.00 | 0.00 | 0.00 | 92 | 1013.9 |
| 20260510035537 | 53 | 240 | 4.0 | 10.0 | 0.00 | 0.00 | 0.00 | 92 | 1013.8 |
| 20260510035037 | 53 | 275 | 3.0 | 10.0 | 0.00 | 0.00 | 0.00 | 92 | 1013.8 |
| 20260510034554 | 53 | 288 | 3.0 | 10.0 | 0.00 | 0.00 | 0.00 | 92 | 1013.8 |
| 20260510034037 | 53 | 254 | 3.0 | 10.0 | 0.00 | 0.00 | 0.00 | 92 | 1013.7 |
| 20260510033539 | 53 | 259 | 3.0 | 10.0 | 0.00 | 0.00 | 0.00 | 92 | 1013.7 |
| 20260510033043 | 53 | 225 | 4.0 | 10.0 | 0.00 | 0.00 | 0.00 | 92 | 1013.8 |
| 20260510032536 | 53 | 240 | 3.0 | 9.0 | 0.00 | 0.00 | 0.00 | 92 | 1013.7 |
| 20260510032040 | 53 | 278 | 4.0 | 9.0 | 0.00 | 0.00 | 0.00 | 92 | 1013.7 |
| 20260510031557 | 53 | 254 | 3.0 | 9.0 | 0.00 | 0.00 | 0.00 | 92 | 1013.6 |
| 20260510031036 | 53 | 288 | 3.0 | 11.0 | 0.00 | 0.00 | 0.00 | 92 | 1013.8 |
| 20260510030537 | 53 | 264 | 4.0 | 11.0 | 0.00 | 0.00 | 0.00 | 92 | 1013.7 |
| 20260510030042 | 53 | 246 | 3.0 | 9.0 | 0.00 | 0.00 | 0.00 | 92 | 1013.7 |
| 20260510025537 | 53 | 269 | 3.0 | 9.0 | 0.00 | 0.00 | 0.00 | 92 | 1013.7 |
| 20260510025038 | 53 | 251 | 3.0 | 9.0 | 0.00 | 0.00 | 0.00 | 91 | 1013.6 |
| 20260510024550 | 53 | 280 | 3.0 | 9.0 | 0.00 | 0.00 | 0.00 | 91 | 1013.7 |
| 20260510024037 | 53 | 252 | 3.0 | 9.0 | 0.00 | 0.00 | 0.00 | 91 | 1013.7 |
| 20260510023537 | 53 | 256 | 3.0 | 9.0 | 0.00 | 0.00 | 0.00 | 91 | 1013.7 |
| 20260510023047 | 53 | 239 | 3.0 | 9.0 | 0.00 | 0.00 | 0.00 | 91 | 1013.7 |
| 20260510022540 | 53 | 265 | 4.0 | 11.0 | 0.00 | 0.00 | 0.00 | 91 | 1013.7 |
| 20260510022041 | 53 | 244 | 4.0 | 11.0 | 0.00 | 0.00 | 0.00 | 91 | 1013.7 |
| 20260510021544 | 54 | 268 | 4.0 | 10.0 | 0.00 | 0.00 | 0.00 | 91 | 1013.7 |
| 20260510021036 | 53 | 254 | 4.0 | 9.0 | 0.00 | 0.00 | 0.00 | 91 | 1013.8 |
| 20260510020536 | 54 | 240 | 4.0 | 9.0 | 0.00 | 0.00 | 0.00 | 91 | 1013.9 |
| 20260510020054 | 54 | 246 | 4.0 | 9.0 | 0.00 | 0.00 | 0.00 | 91 | 1013.9 |
| 20260510015539 | 54 | 254 | 4.0 | 9.0 | 0.00 | 0.00 | 0.00 | 91 | 1013.9 |
| 20260510015037 | 54 | 281 | 3.0 | 8.0 | 0.00 | 0.00 | 0.00 | 91 | 1013.9 |
| 20260510014546 | 54 | 239 | 3.0 | 9.0 | 0.00 | 0.00 | 0.00 | 91 | 1013.9 |
| 20260510014037 | 54 | 234 | 4.0 | 9.0 | 0.00 | 0.00 | 0.00 | 91 | 1013.9 |
| 20260510013538 | 54 | 268 | 4.0 | 9.0 | 0.00 | 0.00 | 0.00 | 90 | 1014.0 |
| 20260510013049 | 54 | 277 | 3.0 | 10.0 | 0.00 | 0.00 | 0.00 | 90 | 1014.0 |
| 20260510012540 | 54 | 255 | 4.0 | 10.0 | 0.00 | 0.00 | 0.00 | 90 | 1014.0 |
| 20260510012039 | 54 | 284 | 3.0 | 10.0 | 0.00 | 0.00 | 0.00 | 90 | 1014.1 |
| 20260510011551 | 54 | 259 | 5.0 | 10.0 | 0.00 | 0.00 | 0.00 | 90 | 1014.1 |
| 20260510011039 | 54 | 273 | 4.0 | 8.0 | 0.00 | 0.00 | 0.00 | 90 | 1014.1 |
| 20260510010535 | 54 | 269 | 3.0 | 9.0 | 0.00 | 0.00 | 0.00 | 90 | 1014.1 |
| 20260510010045 | 54 | 227 | 4.0 | 10.0 | 0.00 | 0.00 | 0.00 | 90 | 1014.2 |
| 20260510005537 | 54 | 248 | 4.0 | 10.0 | 0.00 | 0.00 | 0.00 | 90 | 1014.2 |
| 20260510005037 | 54 | 244 | 4.0 | 10.0 | 0.00 | 0.00 | 0.00 | 90 | 1014.1 |
| 20260510004546 | 54 | 251 | 4.0 | 10.0 | 0.00 | 0.00 | 0.00 | 90 | 1014.1 |
| 20260510004036 | 54 | 252 | 4.0 | 9.0 | 0.00 | 0.00 | 0.00 | 90 | 1014.2 |
| 20260510003537 | 54 | 301 | 4.0 | 14.0 | 0.00 | 0.00 | 0.00 | 89 | 1014.2 |
| 20260510003048 | 54 | 276 | 3.0 | 14.0 | 0.00 | 0.00 | 0.00 | 89 | 1014.3 |
| 20260510002540 | 55 | 252 | 4.0 | 11.0 | 0.00 | 0.00 | 0.00 | 89 | 1014.3 |
| 20260510002036 | 55 | 272 | 4.0 | 11.0 | 0.00 | 0.00 | 0.00 | 89 | 1014.2 |
| 20260510001542 | 55 | 311 | 4.0 | 8.0 | 0.00 | 0.00 | 0.00 | 89 | 1014.3 |
| 20260510001036 | 55 | 266 | 4.0 | 8.0 | 0.00 | 0.00 | 0.00 | 89 | 1014.2 |
| 20260510000536 | 55 | 254 | 4.0 | 9.0 | 0.00 | 0.00 | 0.00 | 89 | 1014.3 |
| 20260510000041 | 55 | 260 | 4.0 | 9.0 | 0.00 | 0.00 | 0.00 | 89 | 1014.3 |
| 20260509235536 | 55 | 296 | 4.0 | 9.0 | 0.00 | 0.00 | 0.00 | 89 | 1014.3 |
| 20260509235036 | 55 | 278 | 4.0 | 9.0 | 0.00 | 0.00 | 0.00 | 89 | 1014.3 |
| 20260509234541 | 55 | 239 | 4.0 | 8.0 | 0.00 | 0.00 | 0.00 | 89 | 1014.4 |
| 20260509234036 | 55 | 249 | 3.0 | 10.0 | 0.00 | 0.00 | 0.00 | 89 | 1014.3 |
| 20260509233538 | 55 | 248 | 4.0 | 10.0 | 0.00 | 0.00 | 0.00 | 89 | 1014.4 |
| 20260509233047 | 55 | 283 | 4.0 | 9.0 | 0.00 | 0.00 | 0.00 | 89 | 1014.4 |
| 20260509232537 | 55 | 271 | 4.0 | 10.0 | 0.00 | 0.00 | 0.00 | 89 | 1014.4 |
| 20260509232037 | 55 | 278 | 4.0 | 12.0 | 0.00 | 0.00 | 0.00 | 89 | 1014.4 |
| 20260509231553 | 55 | 257 | 4.0 | 12.0 | 0.00 | 0.00 | 0.00 | 89 | 1014.4 |
| 20260509231036 | 55 | 158 | 4.0 | 9.0 | 0.00 | 0.00 | 0.00 | 88 | 1014.6 |
| 20260509230536 | 55 | 236 | 3.0 | 10.0 | 0.00 | 0.00 | 0.00 | 88 | 1014.5 |
| 20260509230044 | 55 | 267 | 4.0 | 10.0 | 0.00 | 0.00 | 0.00 | 88 | 1014.5 |
| 20260509225537 | 55 | 242 | 5.0 | 10.0 | 0.00 | 0.00 | 0.00 | 88 | 1014.5 |
| 20260509225036 | 55 | 262 | 4.0 | 10.0 | 0.00 | 0.00 | 0.00 | 88 | 1014.6 |
| 20260509224541 | 55 | 211 | 3.0 | 10.0 | 0.00 | 0.00 | 0.00 | 88 | 1014.6 |
| 20260509224036 | 55 | 257 | 4.0 | 10.0 | 0.00 | 0.00 | 0.00 | 88 | 1014.6 |
| 20260509223536 | 56 | 247 | 3.0 | 10.0 | 0.00 | 0.00 | 0.00 | 88 | 1014.7 |
| 20260509223050 | 56 | 281 | 5.0 | 10.0 | 0.00 | 0.00 | 0.00 | 88 | 1014.8 |
| 20260509222538 | 56 | 274 | 4.0 | 9.0 | 0.00 | 0.00 | 0.00 | 88 | 1014.9 |
| 20260509222036 | 55 | 285 | 3.0 | 9.0 | 0.00 | 0.00 | 0.00 | 88 | 1015.0 |
| 20260509221551 | 55 | 272 | 5.0 | 11.0 | 0.00 | 0.00 | 0.00 | 88 | 1015.0 |
| 20260509221037 | 56 | 256 | 3.0 | 11.0 | 0.00 | 0.00 | 0.00 | 88 | 1015.0 |
| 20260509220537 | 56 | 269 | 4.0 | 11.0 | 0.00 | 0.00 | 0.00 | 87 | 1015.0 |
| 20260509220054 | 56 | 254 | 4.0 | 10.0 | 0.00 | 0.00 | 0.00 | 87 | 1015.0 |
| 20260509215536 | 56 | 272 | 4.0 | 10.0 | 0.00 | 0.00 | 0.00 | 87 | 1015.0 |
| 20260509215110 | 56 | 274 | 4.0 | 10.0 | 0.00 | 0.00 | 0.00 | 87 | 1015.0 |
| 20260509214546 | 56 | 224 | 3.0 | 10.0 | 0.00 | 0.00 | 0.00 | 87 | 1015.0 |
| 20260509214038 | 56 | 246 | 4.0 | 9.0 | 0.00 | 0.00 | 0.00 | 87 | 1015.0 |
| 20260509213540 | 56 | 240 | 3.0 | 10.0 | 0.00 | 0.00 | 0.00 | 87 | 1015.1 |
| 20260509213054 | 56 | 264 | 3.0 | 10.0 | 0.00 | 0.00 | 0.00 | 87 | 1015.1 |
| 20260509212539 | 57 | 273 | 4.0 | 10.0 | 0.00 | 0.00 | 0.00 | 87 | 1015.1 |
| 20260509212037 | 56 | 216 | 4.0 | 10.0 | 0.00 | 0.00 | 0.00 | 87 | 1015.2 |
| 20260509211548 | 56 | 254 | 5.0 | 10.0 | 0.00 | 0.00 | 0.00 | 87 | 1015.1 |
| 20260509211038 | 56 | 230 | 4.0 | 10.0 | 0.00 | 0.00 | 0.00 | 87 | 1015.2 |
| 20260509210539 | 56 | 275 | 4.0 | 10.0 | 0.00 | 0.00 | 0.00 | 87 | 1015.2 |
| 20260509210047 | 56 | 257 | 4.0 | 10.0 | 0.00 | 0.00 | 0.00 | 86 | 1015.2 |
| 20260509205538 | 56 | 260 | 4.0 | 10.0 | 0.00 | 0.00 | 0.00 | 86 | 1015.2 |
| 20260509205040 | 57 | 269 | 3.0 | 9.0 | 0.00 | 0.00 | 0.00 | 87 | 1015.2 |
| 20260509204554 | 56 | 286 | 3.0 | 10.0 | 0.00 | 0.00 | 0.00 | 87 | 1015.2 |
| 20260509204038 | 56 | 278 | 4.0 | 10.0 | 0.00 | 0.00 | 0.00 | 86 | 1015.2 |
| 20260509203538 | 57 | 268 | 4.0 | 10.0 | 0.00 | 0.00 | 0.00 | 87 | 1015.3 |
| 20260509203053 | 57 | 215 | 4.0 | 10.0 | 0.00 | 0.00 | 0.00 | 86 | 1015.3 |
| 20260509202538 | 57 | 277 | 3.0 | 9.0 | 0.00 | 0.00 | 0.00 | 86 | 1015.3 |
| 20260509202041 | 57 | 265 | 3.0 | 9.0 | 0.00 | 0.00 | 0.00 | 87 | 1015.3 |
| 20260509201546 | 56 | 297 | 3.0 | 9.0 | 0.00 | 0.00 | 0.00 | 87 | 1015.4 |
| 20260509201037 | 56 | 245 | 3.0 | 6.0 | 0.00 | 0.00 | 0.00 | 86 | 1015.4 |
| 20260509200537 | 57 | 234 | 3.0 | 7.0 | 0.00 | 0.00 | 0.00 | 86 | 1015.4 |
| 20260509200049 | 56 | 248 | 3.0 | 7.0 | 0.00 | 0.00 | 0.00 | 86 | 1015.5 |
| 20260509195543 | 56 | 246 | 3.0 | 7.0 | 0.00 | 0.00 | 0.00 | 86 | 1015.5 |
| 20260509195038 | 56 | 234 | 3.0 | 8.0 | 0.00 | 0.00 | 0.00 | 86 | 1015.4 |
| 20260509194552 | 56 | 241 | 3.0 | 8.0 | 0.00 | 0.00 | 0.00 | 87 | 1015.4 |
| 20260509194038 | 56 | 238 | 3.0 | 7.0 | 0.00 | 0.00 | 0.00 | 87 | 1015.3 |
| 20260509193538 | 56 | 249 | 3.0 | 7.0 | 0.00 | 0.00 | 0.00 | 87 | 1015.4 |
| 20260509193045 | 56 | 225 | 3.0 | 7.0 | 0.00 | 0.00 | 0.00 | 87 | 1015.4 |
| 20260509192540 | 56 | 239 | 3.0 | 7.0 | 0.00 | 0.00 | 0.00 | 86 | 1015.5 |
| 20260509192042 | 56 | 245 | 2.0 | 7.0 | 0.00 | 0.00 | 0.00 | 87 | 1015.5 |
| 20260509191543 | 56 | 215 | 3.0 | 6.0 | 0.00 | 0.00 | 0.00 | 87 | 1015.6 |
| 20260509191041 | 56 | 245 | 2.0 | 6.0 | 0.00 | 0.00 | 0.00 | 87 | 1015.6 |
| 20260509190537 | 55 | 254 | 3.0 | 6.0 | 0.00 | 0.00 | 0.00 | 88 | 1015.6 |
| 20260509190054 | 55 | 238 | 3.0 | 7.0 | 0.00 | 0.00 | 0.00 | 87 | 1015.7 |
| 20260509185537 | 55 | 248 | 3.0 | 7.0 | 0.00 | 0.00 | 0.00 | 87 | 1015.7 |
| 20260509185037 | 55 | 244 | 3.0 | 7.0 | 0.00 | 0.00 | 0.00 | 88 | 1015.6 |
| 20260509184607 | 55 | 251 | 3.0 | 7.0 | 0.00 | 0.00 | 0.00 | 88 | 1015.6 |
| 20260509184038 | 55 | 251 | 2.0 | 7.0 | 0.00 | 0.00 | 0.00 | 88 | 1015.5 |
| 20260509183537 | 55 | 249 | 3.0 | 7.0 | 0.00 | 0.00 | 0.00 | 88 | 1015.5 |
| 20260509183055 | 55 | 242 | 2.0 | 4.0 | 0.00 | 0.00 | 0.00 | 89 | 1015.5 |
| 20260509182536 | 55 | 234 | 2.0 | 7.0 | 0.00 | 0.00 | 0.00 | 89 | 1015.5 |
| 20260509182036 | 54 | 279 | 2.0 | 7.0 | 0.00 | 0.00 | 0.00 | 89 | 1015.5 |
| 20260509181550 | 54 | 289 | 3.0 | 7.0 | 0.00 | 0.00 | 0.00 | 89 | 1015.6 |
| 20260509181036 | 54 | 277 | 3.0 | 6.0 | 0.00 | 0.00 | 0.00 | 90 | 1015.7 |
| 20260509180537 | 54 | 254 | 2.0 | 6.0 | 0.00 | 0.00 | 0.00 | 90 | 1015.6 |
| 20260509180050 | 54 | 273 | 2.0 | 9.0 | 0.00 | 0.00 | 0.00 | 90 | 1015.7 |
| 20260509175539 | 54 | 289 | 2.0 | 9.0 | 0.00 | 0.00 | 0.00 | 91 | 1015.7 |
| 20260509175036 | 54 | 285 | 2.0 | 6.0 | 0.00 | 0.00 | 0.00 | 91 | 1015.7 |
| 20260509174547 | 53 | 281 | 2.0 | 6.0 | 0.00 | 0.00 | 0.00 | 91 | 1015.7 |
| 20260509174036 | 54 | 250 | 2.0 | 6.0 | 0.00 | 0.00 | 0.00 | 91 | 1015.6 |
| 20260509173536 | 53 | 279 | 1.0 | 6.0 | 0.00 | 0.00 | 0.00 | 91 | 1015.6 |
| 20260509173047 | 53 | 297 | 2.0 | 5.0 | 0.00 | 0.00 | 0.00 | 91 | 1015.6 |
| 20260509172536 | 53 | 286 | 2.0 | 4.0 | 0.00 | 0.00 | 0.00 | 92 | 1015.5 |
| 20260509172036 | 53 | 250 | 2.0 | 4.0 | 0.00 | 0.00 | 0.00 | 91 | 1015.5 |
| 20260509171544 | 53 | 238 | 2.0 | 4.0 | 0.00 | 0.00 | 0.00 | 92 | 1015.5 |
| 20260509171032 | 52 | 247 | 2.0 | 6.0 | 0.00 | 0.00 | 0.00 | 91 | 1015.5 |
| 20260509170536 | 52 | 263 | 2.0 | 6.0 | 0.00 | 0.00 | 0.00 | 91 | 1015.5 |
| 20260509170043 | 52 | 263 | 2.0 | 4.0 | 0.00 | 0.00 | 0.00 | 91 | 1015.5 |
| 20260509165533 | 52 | 272 | 2.0 | 4.0 | 0.00 | 0.00 | 0.00 | 91 | 1015.6 |
| 20260509165037 | 52 | 316 | 1.0 | 5.0 | 0.00 | 0.00 | 0.00 | 91 | 1015.5 |
| 20260509164541 | 52 | 238 | 2.0 | 5.0 | 0.00 | 0.00 | 0.00 | 91 | 1015.5 |
| 20260509164038 | 52 | 257 | 2.0 | 6.0 | 0.00 | 0.00 | 0.00 | 90 | 1015.4 |
| 20260509163536 | 52 | 247 | 3.0 | 7.0 | 0.00 | 0.00 | 0.00 | 91 | 1015.4 |
| 20260509163045 | 52 | 224 | 4.0 | 7.0 | 0.00 | 0.00 | 0.00 | 90 | 1015.4 |
| 20260509162540 | 52 | 249 | 3.0 | 7.0 | 0.00 | 0.00 | 0.00 | 90 | 1015.3 |
| 20260509162037 | 53 | 233 | 3.0 | 7.0 | 0.00 | 0.00 | 0.00 | 90 | 1015.2 |
| 20260509161544 | 53 | 238 | 3.0 | 7.0 | 0.00 | 0.00 | 0.00 | 90 | 1015.2 |
| 20260509161035 | 54 | 238 | 3.0 | 7.0 | 0.00 | 0.00 | 0.00 | 90 | 1015.2 |
| 20260509160536 | 53 | 212 | 3.0 | 7.0 | 0.00 | 0.00 | 0.00 | 91 | 1015.0 |
| 20260509160048 | 54 | 238 | 3.0 | 7.0 | 0.00 | 0.00 | 0.00 | 91 | 1015.1 |
| 20260509155541 | 53 | 205 | 4.0 | 7.0 | 0.00 | 0.00 | 0.00 | 91 | 1015.0 |
| 20260509155035 | 54 | 199 | 3.0 | 6.0 | 0.00 | 0.00 | 0.00 | 91 | 1015.0 |
| 20260509154546 | 53 | 212 | 3.0 | 9.0 | 0.00 | 0.00 | 0.00 | 91 | 1015.0 |
| 20260509154033 | 53 | 197 | 4.0 | 9.0 | 0.00 | 0.00 | 0.00 | 91 | 1015.0 |
| 20260509153535 | 53 | 223 | 2.0 | 8.0 | 0.00 | 0.00 | 0.00 | 92 | 1014.9 |
| 20260509153049 | 53 | 210 | 4.0 | 9.0 | 0.00 | 0.00 | 0.00 | 91 | 1014.8 |
| 20260509152537 | 53 | 217 | 4.0 | 9.0 | 0.00 | 0.00 | 0.00 | 91 | 1014.8 |
| 20260509152038 | 53 | 205 | 3.0 | 7.0 | 0.00 | 0.00 | 0.00 | 91 | 1014.9 |
| 20260509151555 | 53 | 182 | 3.0 | 7.0 | 0.00 | 0.00 | 0.00 | 91 | 1014.8 |
| 20260509151041 | 53 | 205 | 3.0 | 7.0 | 0.00 | 0.00 | 0.00 | 91 | 1014.9 |
| 20260509150538 | 53 | 224 | 3.0 | 7.0 | 0.00 | 0.00 | 0.00 | 91 | 1014.8 |
| 20260509150050 | 53 | 231 | 3.0 | 7.0 | 0.00 | 0.00 | 0.00 | 91 | 1014.9 |
| 20260509145538 | 53 | 248 | 3.0 | 7.0 | 0.00 | 0.00 | 0.00 | 91 | 1014.8 |
| 20260509145039 | 53 | 215 | 3.0 | 5.0 | 0.00 | 0.00 | 0.00 | 91 | 1014.8 |
| 20260509144553 | 53 | 224 | 3.0 | 5.0 | 0.00 | 0.00 | 0.00 | 91 | 1014.8 |
| 20260509144041 | 53 | 225 | 3.0 | 5.0 | 0.00 | 0.00 | 0.00 | 91 | 1014.7 |
| 20260509143538 | 53 | 240 | 2.0 | 5.0 | 0.00 | 0.00 | 0.00 | 91 | 1014.7 |
| 20260509143049 | 53 | 220 | 2.0 | 5.0 | 0.00 | 0.00 | 0.00 | 91 | 1014.6 |
| 20260509142537 | 53 | 240 | 2.0 | 6.0 | 0.00 | 0.00 | 0.00 | 91 | 1014.6 |
| 20260509142040 | 53 | 198 | 3.0 | 6.0 | 0.00 | 0.00 | 0.00 | 91 | 1014.6 |
| 20260509141601 | 53 | 244 | 4.0 | 6.0 | 0.00 | 0.00 | 0.00 | 91 | 1014.5 |
| 20260509141043 | 53 | 241 | 3.0 | 7.0 | 0.00 | 0.00 | 0.00 | 92 | 1014.4 |
| 20260509140536 | 53 | 225 | 2.0 | 7.0 | 0.00 | 0.00 | 0.00 | 91 | 1014.4 |
| 20260509140059 | 53 | 220 | 3.0 | 7.0 | 0.00 | 0.00 | 0.00 | 92 | 1014.4 |
| 20260509135537 | 53 | 219 | 2.0 | 5.0 | 0.00 | 0.00 | 0.00 | 92 | 1014.5 |
| 20260509135038 | 53 | 219 | 3.0 | 5.0 | 0.00 | 0.00 | 0.00 | 92 | 1014.4 |
| 20260509134551 | 53 | 204 | 3.0 | 5.0 | 0.00 | 0.00 | 0.00 | 92 | 1014.4 |
| 20260509134037 | 53 | 227 | 2.0 | 4.0 | 0.00 | 0.00 | 0.00 | 92 | 1014.4 |
| 20260509133538 | 53 | 221 | 2.0 | 6.0 | 0.00 | 0.00 | 0.00 | 92 | 1014.5 |
| 20260509133046 | 53 | 230 | 2.0 | 6.0 | 0.00 | 0.00 | 0.00 | 92 | 1014.4 |
| 20260509132538 | 53 | 240 | 3.0 | 7.0 | 0.00 | 0.00 | 0.00 | 92 | 1014.4 |
| 20260509132038 | 53 | 225 | 3.0 | 7.0 | 0.00 | 0.00 | 0.00 | 92 | 1014.3 |
| 20260509131545 | 53 | 238 | 2.0 | 4.0 | 0.00 | 0.00 | 0.00 | 92 | 1014.3 |
| 20260509131038 | 53 | 228 | 2.0 | 5.0 | 0.00 | 0.00 | 0.00 | 92 | 1014.4 |
| 20260509130541 | 53 | 215 | 2.0 | 5.0 | 0.00 | 0.00 | 0.00 | 92 | 1014.3 |
| 20260509130051 | 53 | 225 | 2.0 | 5.0 | 0.00 | 0.00 | 0.00 | 92 | 1014.3 |
| 20260509125538 | 53 | 202 | 2.0 | 5.0 | 0.00 | 0.00 | 0.00 | 92 | 1014.2 |
| 20260509125038 | 53 | 225 | 2.0 | 5.0 | 0.00 | 0.00 | 0.00 | 92 | 1014.3 |
| 20260509124547 | 52 | 236 | 2.0 | 5.0 | 0.00 | 0.00 | 0.00 | 92 | 1014.2 |
| 20260509124037 | 53 | 211 | 3.0 | 5.0 | 0.00 | 0.00 | 0.00 | 92 | 1014.2 |
| 20260509123537 | 52 | 218 | 3.0 | 6.0 | 0.00 | 0.00 | 0.00 | 92 | 1014.2 |
| 20260509123057 | 52 | 243 | 2.0 | 6.0 | 0.00 | 0.00 | 0.00 | 92 | 1014.3 |
| 20260509122537 | 52 | 235 | 3.0 | 6.0 | 0.00 | 0.00 | 0.00 | 92 | 1014.2 |
| 20260509122038 | 52 | 198 | 2.0 | 5.0 | 0.00 | 0.00 | 0.00 | 92 | 1014.2 |
| 20260509121552 | 52 | 213 | 3.0 | 5.0 | 0.00 | 0.00 | 0.00 | 92 | 1014.3 |
| 20260509121038 | 52 | 242 | 2.0 | 6.0 | 0.00 | 0.00 | 0.00 | 92 | 1014.3 |
| 20260509120538 | 52 | 203 | 3.0 | 6.0 | 0.00 | 0.00 | 0.00 | 92 | 1014.2 |
| 20260509120045 | 52 | 197 | 2.0 | 5.0 | 0.00 | 0.00 | 0.00 | 92 | 1014.2 |
| 20260509115537 | 52 | 211 | 3.0 | 5.0 | 0.00 | 0.00 | 0.00 | 92 | 1014.2 |
| 20260509115037 | 52 | 212 | 2.0 | 4.0 | 0.00 | 0.00 | 0.00 | 91 | 1014.3 |
| 20260509114544 | 52 | 229 | 2.0 | 4.0 | 0.00 | 0.00 | 0.00 | 91 | 1014.4 |
| 20260509114038 | 53 | 234 | 2.0 | 4.0 | 0.00 | 0.00 | 0.00 | 92 | 1014.3 |
| 20260509113538 | 52 | 229 | 1.0 | 5.0 | 0.00 | 0.00 | 0.00 | 92 | 1014.4 |
| 20260509113100 | 52 | 241 | 1.0 | 5.0 | 0.00 | 0.00 | 0.00 | 92 | 1014.5 |
| 20260509112537 | 52 | 244 | 2.0 | 5.0 | 0.00 | 0.00 | 0.00 | 92 | 1014.5 |
| 20260509112037 | 53 | 233 | 2.0 | 4.0 | 0.00 | 0.00 | 0.00 | 92 | 1014.5 |
| 20260509111555 | 53 | 238 | 1.0 | 4.0 | 0.00 | 0.00 | 0.00 | 92 | 1014.5 |
| 20260509111037 | 52 | 238 | 2.0 | 4.0 | 0.00 | 0.00 | 0.00 | 92 | 1014.5 |
| 20260509110540 | 52 | 232 | 2.0 | 5.0 | 0.00 | 0.00 | 0.00 | 91 | 1014.4 |
| 20260509110040 | 52 | 236 | 2.0 | 5.0 | 0.00 | 0.00 | 0.00 | 91 | 1014.5 |
| 20260509105537 | 52 | 225 | 2.0 | 5.0 | 0.00 | 0.00 | 0.00 | 91 | 1014.5 |
| 20260509105037 | 52 | 242 | 2.0 | 5.0 | 0.00 | 0.00 | 0.00 | 91 | 1014.5 |
| 20260509104552 | 52 | 232 | 2.0 | 5.0 | 0.00 | 0.00 | 0.00 | 91 | 1014.5 |
| 20260509104037 | 52 | 236 | 2.0 | 5.0 | 0.00 | 0.00 | 0.00 | 91 | 1014.5 |
| 20260509103536 | 52 | 225 | 2.0 | 3.0 | 0.00 | 0.00 | 0.00 | 91 | 1014.6 |
| 20260509103054 | 52 | 270 | 2.0 | 5.0 | 0.00 | 0.00 | 0.00 | 91 | 1014.6 |
| 20260509102538 | 52 | 270 | 1.0 | 6.0 | 0.00 | 0.00 | 0.00 | 91 | 1014.6 |
| 20260509102038 | 52 | 270 | 2.0 | 6.0 | 0.00 | 0.00 | 0.00 | 91 | 1014.6 |
| 20260509101544 | 52 | 244 | 1.0 | 3.0 | 0.00 | 0.00 | 0.00 | 91 | 1014.6 |
| 20260509101038 | 52 | 0 | 1.0 | 4.0 | 0.00 | 0.00 | 0.00 | 91 | 1014.6 |
| 20260509100537 | 52 | 275 | 1.0 | 4.0 | 0.00 | 0.00 | 0.00 | 91 | 1014.7 |
| 20260509095537 | 52 | 244 | 2.0 | 4.0 | 0.00 | 0.00 | 0.00 | 91 | 1014.7 |
| 20260509095040 | 52 | 229 | 1.0 | 3.0 | 0.00 | 0.00 | 0.00 | 91 | 1014.6 |
| 20260509094554 | 52 | 268 | 1.0 | 4.0 | 0.00 | 0.00 | 0.00 | 91 | 1014.7 |
| 20260509094038 | 53 | 290 | 1.0 | 4.0 | 0.00 | 0.00 | 0.00 | 91 | 1014.7 |
| 20260509093537 | 53 | 257 | 1.0 | 4.0 | 0.00 | 0.00 | 0.00 | 91 | 1014.9 |
| 20260509093047 | 53 | 274 | 1.0 | 4.0 | 0.00 | 0.00 | 0.00 | 91 | 1014.9 |
| 20260509092539 | 53 | 239 | 2.0 | 4.0 | 0.00 | 0.00 | 0.00 | 91 | 1014.9 |
| 20260509092037 | 53 | 237 | 1.0 | 4.0 | 0.00 | 0.00 | 0.00 | 90 | 1015.0 |
| 20260509091557 | 53 | 238 | 2.0 | 5.0 | 0.00 | 0.00 | 0.00 | 90 | 1014.9 |
| 20260509091038 | 53 | 231 | 2.0 | 5.0 | 0.00 | 0.00 | 0.00 | 90 | 1014.9 |
| 20260509090537 | 53 | 232 | 2.0 | 4.0 | 0.00 | 0.00 | 0.00 | 90 | 1014.9 |
| 20260509090045 | 53 | 227 | 2.0 | 4.0 | 0.00 | 0.00 | 0.00 | 90 | 1014.9 |
| 20260509085537 | 53 | 0 | 1.0 | 3.0 | 0.00 | 0.00 | 0.00 | 91 | 1014.9 |
| 20260509085039 | 53 | 237 | 1.0 | 3.0 | 0.00 | 0.00 | 0.00 | 90 | 1014.9 |
| 20260509084546 | 53 | 254 | 1.0 | 3.0 | 0.00 | 0.00 | 0.00 | 91 | 1015.0 |
| 20260509084040 | 53 | 254 | 1.0 | 3.0 | 0.00 | 0.00 | 0.00 | 91 | 1015.0 |
| 20260509083539 | 53 | 261 | 1.0 | 3.0 | 0.00 | 0.00 | 0.00 | 90 | 1015.1 |
| 20260509083045 | 53 | 286 | 1.0 | 6.0 | 0.00 | 0.00 | 0.00 | 90 | 1015.2 |
| 20260509082537 | 53 | 278 | 2.0 | 7.0 | 0.00 | 0.00 | 0.00 | 91 | 1015.3 |
| 20260509082037 | 53 | 298 | 2.0 | 7.0 | 0.00 | 0.00 | 0.00 | 90 | 1015.3 |
| 20260509081548 | 53 | 255 | 1.0 | 6.0 | 0.00 | 0.00 | 0.00 | 90 | 1015.3 |
| 20260509081037 | 53 | 275 | 2.0 | 7.0 | 0.00 | 0.00 | 0.00 | 90 | 1015.3 |
| 20260509080537 | 53 | 270 | 2.0 | 7.0 | 0.00 | 0.00 | 0.00 | 90 | 1015.3 |
| 20260509080051 | 53 | 284 | 3.0 | 7.0 | 0.00 | 0.00 | 0.00 | 90 | 1015.4 |
| 20260509075537 | 53 | 284 | 2.0 | 7.0 | 0.00 | 0.00 | 0.00 | 90 | 1015.4 |
| 20260509075037 | 53 | 311 | 2.0 | 6.0 | 0.00 | 0.00 | 0.00 | 90 | 1015.6 |
| 20260509074546 | 53 | 306 | 2.0 | 6.0 | 0.00 | 0.00 | 0.00 | 90 | 1015.6 |
| 20260509074036 | 53 | 275 | 2.0 | 6.0 | 0.00 | 0.00 | 0.00 | 90 | 1015.6 |
| 20260509073536 | 53 | 277 | 2.0 | 6.0 | 0.00 | 0.00 | 0.00 | 90 | 1015.5 |
| 20260509073048 | 53 | 243 | 2.0 | 6.0 | 0.00 | 0.00 | 0.00 | 90 | 1015.6 |
| 20260509072539 | 53 | 252 | 2.0 | 4.0 | 0.00 | 0.00 | 0.00 | 91 | 1015.7 |
| 20260509072037 | 53 | 250 | 2.0 | 7.0 | 0.00 | 0.00 | 0.00 | 90 | 1015.7 |
| 20260509071547 | 53 | 242 | 2.0 | 7.0 | 0.00 | 0.00 | 0.00 | 90 | 1015.7 |
| 20260509071037 | 53 | 269 | 1.0 | 4.0 | 0.00 | 0.00 | 0.00 | 91 | 1015.7 |
| 20260509070539 | 53 | 260 | 1.0 | 4.0 | 0.00 | 0.00 | 0.00 | 90 | 1015.8 |
| 20260509070051 | 53 | 262 | 2.0 | 7.0 | 0.00 | 0.00 | 0.00 | 91 | 1015.8 |
| 20260509065537 | 53 | 238 | 2.0 | 7.0 | 0.00 | 0.00 | 0.00 | 91 | 1015.9 |
| 20260509065037 | 53 | 288 | 3.0 | 5.0 | 0.00 | 0.00 | 0.00 | 91 | 1015.9 |
| 20260509064547 | 53 | 227 | 2.0 | 5.0 | 0.00 | 0.00 | 0.00 | 91 | 1015.9 |
| 20260509064037 | 53 | 242 | 2.0 | 5.0 | 0.00 | 0.00 | 0.00 | 91 | 1015.9 |
| 20260509063537 | 53 | 242 | 2.0 | 5.0 | 0.00 | 0.00 | 0.00 | 91 | 1015.9 |
| 20260509063049 | 53 | 238 | 2.0 | 5.0 | 0.00 | 0.00 | 0.00 | 91 | 1016.0 |
| 20260509062537 | 53 | 244 | 2.0 | 5.0 | 0.00 | 0.00 | 0.00 | 91 | 1016.0 |
| 20260509062037 | 53 | 248 | 2.0 | 5.0 | 0.00 | 0.00 | 0.00 | 91 | 1016.0 |
| 20260509061601 | 53 | 250 | 2.0 | 5.0 | 0.00 | 0.00 | 0.00 | 91 | 1016.1 |
| 20260509061036 | 53 | 239 | 2.0 | 5.0 | 0.00 | 0.00 | 0.00 | 91 | 1016.0 |
| 20260509060537 | 53 | 234 | 3.0 | 5.0 | 0.00 | 0.00 | 0.00 | 90 | 1016.1 |
| 20260509060044 | 53 | 244 | 3.0 | 5.0 | 0.00 | 0.00 | 0.00 | 91 | 1016.1 |
| 20260509055542 | 53 | 235 | 2.0 | 7.0 | 0.00 | 0.00 | 0.00 | 91 | 1016.2 |
| 20260509055037 | 53 | 240 | 3.0 | 7.0 | 0.00 | 0.00 | 0.00 | 90 | 1016.1 |
| 20260509054551 | 53 | 219 | 2.0 | 6.0 | 0.00 | 0.00 | 0.00 | 90 | 1016.1 |